Waarnemingen

Advertentie
Mijn weer
Kleine Brogel, België (6479): temperatuur & dauwpunt: 15.10.2017 03:00:00 - 21.10.2017 03:00:00 (CEST)Kleine Brogel, België (6479): windsnelheid & windstoten: 15.10.2017 03:00:00 - 21.10.2017 03:00:00 (CEST)Kleine Brogel, België (6479): windrichting: 15.10.2017 03:00:00 - 21.10.2017 03:00:00 (CEST)Kleine Brogel, België (6479): luchtdruk: 15.10.2017 03:00:00 - 21.10.2017 03:00:00 (CEST)Kleine Brogel, België (6479): zicht: 15.10.2017 03:00:00 - 21.10.2017 03:00:00 (CEST)
Datum & Tijd tt [°C] td [°C] ff [km/u] ff [kn] fx [km/u] fx [kn] dd ppp [hPa] vv [km]
21.10.2017 03:00:00 10,8 7,4 8 4 14 8 Z 1012,8 10
21.10.2017 02:00:00 11,3 7,3 8 4 - - Z 1013,2 10
21.10.2017 01:00:00 11,1 6,9 8 4 18 10 ZZW 1013,3 10
21.10.2017 00:00:00 10,9 6,6 11 6 22 12 ZZW 1013,6 10
20.10.2017 23:00:00 10,6 6,8 11 6 - - ZZW 1013,7 10
20.10.2017 22:00:00 11,3 7,1 11 6 29 16 ZZW 1013,7 10
20.10.2017 21:00:00 13,3 7,4 21 11 32 18 ZW 1013,2 10
20.10.2017 20:00:00 13,0 7,8 18 10 - - ZW 1013,0 10
20.10.2017 19:00:00 13,3 7,9 24 13 43 23 ZW 1012,3 10
20.10.2017 18:00:00 13,8 7,8 24 13 40 21 ZW 1011,6 10
20.10.2017 17:00:00 13,8 8,7 28 15 - - ZW 1011,3 10
20.10.2017 16:00:00 13,8 9,1 29 16 47 25 ZW 1010,7 10
20.10.2017 15:00:00 14,1 8,9 26 14 50 27 ZW 1010,5 10
20.10.2017 14:00:00 14,1 8,9 35 19 - - ZW 1010,2 10
20.10.2017 13:00:00 14,9 8,7 31 17 54 29 ZW 1009,8 10
20.10.2017 12:00:00 14,9 8,5 29 16 58 31 ZZW 1009,3 10
20.10.2017 11:00:00 14,6 9,9 22 12 - - ZW 1008,8 10
20.10.2017 10:00:00 14,5 11,3 22 12 40 21 ZW 1008,2 10
20.10.2017 09:00:00 13,9 12,7 16 9 29 16 ZZW 1007,3 10
20.10.2017 08:00:00 14,7 12,5 15 8 - - ZZW 1006,3 10
20.10.2017 07:00:00 15,8 11,2 9 5 18 10 Z 1006,1 10
20.10.2017 06:00:00 16,0 10,9 8 4 22 12 ZZO 1006,7 10
20.10.2017 05:00:00 17,1 10,6 9 5 - - Z 1007,3 10
20.10.2017 04:00:00 16,7 10,7 9 5 18 10 Z 1007,5 10
20.10.2017 03:00:00 16,7 10,9 9 5 22 12 Z 1007,8 10
20.10.2017 02:00:00 17,1 11,2 8 4 - - Z 1008,2 10
20.10.2017 01:00:00 16,6 11,7 8 4 14 8 ZZO 1008,1 10
20.10.2017 00:00:00 16,2 12,3 4 2 14 8 - 1008,1 10
19.10.2017 23:00:00 17,0 12,7 5 3 - - ZO 1008,3 10
19.10.2017 22:00:00 16,6 12,9 8 4 11 6 ZZO 1008,5 10
19.10.2017 21:00:00 17,5 13,1 5 3 11 6 ZZO 1008,7 10
19.10.2017 20:00:00 19,2 13,3 5 3 - - ZZO 1008,7 10
19.10.2017 19:00:00 19,3 13,0 4 2 11 6 - 1008,7 10
19.10.2017 18:00:00 20,2 13,4 5 3 14 8 Z 1008,5 10
19.10.2017 17:00:00 20,6 13,4 5 3 - - Z 1008,6 10
19.10.2017 16:00:00 21,2 13,1 8 4 18 10 Z 1008,7 10
19.10.2017 15:00:00 20,8 12,6 9 5 18 10 ZZO 1009,2 10
19.10.2017 14:00:00 21,0 12,3 9 5 - - ZZO 1010,1 10
19.10.2017 13:00:00 20,5 12,5 9 5 22 12 ZZO 1010,6 10
19.10.2017 12:00:00 18,8 12,7 5 3 14 8 ZO 1011,0 10
19.10.2017 11:00:00 16,7 11,9 5 3 - - ZO 1011,5 10
19.10.2017 10:00:00 14,1 11,7 4 2 7 4 - 1011,8 10
19.10.2017 09:00:00 10,6 10,3 2 1 4 2 - 1011,7 8
19.10.2017 08:00:00 10,2 9,8 2 1 - - - 1011,5 6
19.10.2017 07:00:00 10,3 9,9 4 2 4 2 - 1011,6 10
19.10.2017 06:00:00 10,2 9,7 2 1 4 2 - 1011,7 10
19.10.2017 05:00:00 11,3 10,7 2 1 - - - 1012,2 6
19.10.2017 04:00:00 11,3 10,7 2 1 4 2 - 1012,3 2,8
19.10.2017 03:00:00 13,0 11,4 2 1 7 4 - 1012,6 10
19.10.2017 02:00:00 13,6 12,0 4 2 - - - 1012,6 10
19.10.2017 01:00:00 14,1 12,5 4 2 7 4 - 1012,8 10
19.10.2017 00:00:00 14,8 12,8 2 1 7 4 - 1012,8 10
18.10.2017 23:00:00 13,6 12,7 4 2 - - - 1012,8 3,4
18.10.2017 22:00:00 13,1 12,1 2 1 4 2 - 1012,7 6
18.10.2017 21:00:00 14,6 13,2 2 1 7 4 - 1012,7 3,0
18.10.2017 20:00:00 15,0 13,6 5 3 - - Z 1012,5 3,2
18.10.2017 19:00:00 15,9 13,7 2 1 7 4 - 1012,2 10
18.10.2017 18:00:00 19,1 13,7 4 2 11 6 - 1012,2 10
18.10.2017 17:00:00 21,1 13,7 5 3 - - ZW 1012,1 10
18.10.2017 16:00:00 21,1 12,9 9 5 14 8 ZZW 1012,3 10
18.10.2017 15:00:00 21,3 13,1 7 4 18 10 ZW 1012,5 15
18.10.2017 14:00:00 20,0 11,8 8 4 - - ZW 1012,8 10
18.10.2017 13:00:00 18,6 11,4 11 6 18 10 ZW 1013,5 10
18.10.2017 12:00:00 17,1 11,5 9 5 14 8 ZZW 1013,6 10
18.10.2017 11:00:00 13,1 12,7 4 2 - - - 1014,1 10
18.10.2017 10:00:00 11,4 11,4 2 1 7 4 - 1014,3 0,5
18.10.2017 09:00:00 11,0 10,9 4 2 11 6 - 1014,2 0,2
18.10.2017 08:00:00 11,5 11,5 5 3 - - O 1014,1 0,2
18.10.2017 07:00:00 12,0 11,9 5 3 11 6 ONO 1014,3 0,4
18.10.2017 06:00:00 12,1 12,0 5 3 11 6 NO 1014,7 2,5
18.10.2017 05:00:00 11,6 11,6 8 4 - - NO 1015,1 2,0
18.10.2017 04:00:00 10,8 10,5 8 4 7 4 NO 1015,2 2,4
18.10.2017 03:00:00 11,2 11,0 2 1 7 4 - 1015,7 3,6
18.10.2017 02:00:00 11,8 11,2 4 2 - - - 1016,2 6
18.10.2017 01:00:00 12,6 11,6 5 3 11 6 O 1017,0 4,4
18.10.2017 00:00:00 13,6 12,1 5 3 11 6 O 1017,5 10
17.10.2017 23:00:00 13,3 12,4 8 4 - - NNO 1018,1 9
17.10.2017 22:00:00 12,4 11,8 4 2 4 2 - 1018,2 8
17.10.2017 21:00:00 12,1 11,5 4 2 4 2 - 1018,7 10
17.10.2017 20:00:00 12,6 11,9 4 2 - - - 1019,2 10
17.10.2017 19:00:00 13,9 12,4 2 1 7 4 - 1019,2 10
17.10.2017 18:00:00 16,0 13,1 4 2 7 4 - 1019,3 10
17.10.2017 17:00:00 17,6 12,8 2 1 - - - 1019,7 10
17.10.2017 16:00:00 17,8 13,0 5 3 11 6 WZW 1020,2 10
17.10.2017 15:00:00 17,8 12,8 5 3 11 6 W 1021,0 10
17.10.2017 14:00:00 17,4 12,5 8 4 - - WZW 1021,7 10
17.10.2017 13:00:00 17,0 11,9 9 5 14 8 WZW 1022,3 10
17.10.2017 12:00:00 16,3 12,0 9 5 11 6 W 1022,6 10
17.10.2017 11:00:00 15,4 13,1 8 4 - - ZW 1022,7 10
17.10.2017 10:00:00 14,2 13,1 5 3 7 4 ZZW 1022,7 8
17.10.2017 09:00:00 14,1 13,2 2 1 7 4 - 1022,7 10
17.10.2017 08:00:00 13,8 13,0 4 2 - - - 1022,6 8
17.10.2017 07:00:00 14,1 12,8 4 2 4 2 - 1022,2 10
17.10.2017 06:00:00 14,6 13,1 4 2 14 8 - 1022,2 10
17.10.2017 05:00:00 13,8 12,7 8 4 - - WZW 1022,1 10
17.10.2017 04:00:00 14,9 12,8 9 5 11 6 WZW 1021,7 10
17.10.2017 03:00:00 15,8 12,8 8 4 14 8 ZW 1021,3 10
17.10.2017 02:00:00 16,6 12,8 9 5 - - ZW 1021,2 10
17.10.2017 01:00:00 16,8 12,9 8 4 14 8 ZZW 1021,0 10
17.10.2017 00:00:00 17,5 13,1 8 4 18 10 ZZW 1021,0 10
16.10.2017 23:00:00 18,2 13,2 8 4 - - ZZW 1020,7 10
16.10.2017 22:00:00 18,9 13,5 13 7 22 12 ZZW 1020,6 10
16.10.2017 21:00:00 20,1 13,4 11 6 22 12 Z 1020,2 10
16.10.2017 20:00:00 21,0 12,9 13 7 - - ZZW 1020,2 10
16.10.2017 19:00:00 19,7 15,0 4 2 7 4 - 1019,7 10
16.10.2017 18:00:00 22,8 15,1 4 2 7 4 - 1019,3 10
16.10.2017 17:00:00 24,7 15,2 5 3 - - - 1019,8 10
16.10.2017 16:00:00 25,2 15,8 9 5 18 10 Z 1020,3 10
16.10.2017 15:00:00 25,0 15,5 8 4 18 10 Z 1020,7 10
16.10.2017 14:00:00 24,2 15,5 11 6 - - Z 1021,2 10
16.10.2017 13:00:00 23,7 15,7 13 7 25 14 ZZW 1021,7 10
16.10.2017 12:00:00 22,5 15,2 13 7 25 14 ZZW 1022,1 10
16.10.2017 11:00:00 20,5 14,7 15 8 - - ZZW 1022,2 10
16.10.2017 10:00:00 18,5 13,8 11 6 22 12 ZZW 1021,7 10
16.10.2017 09:00:00 16,7 13,2 13 7 22 12 ZZW 1021,5 10
16.10.2017 08:00:00 16,6 13,1 11 6 - - ZZW 1021,2 10
16.10.2017 07:00:00 16,1 13,1 9 5 18 10 ZZW 1020,8 10
16.10.2017 06:00:00 16,5 12,7 11 6 18 10 ZW 1021,3 10
16.10.2017 05:00:00 15,8 12,7 8 4 - - ZZW 1021,6 10
16.10.2017 04:00:00 15,3 12,7 9 5 14 8 ZZW 1021,3 10
16.10.2017 03:00:00 15,6 13,0 8 4 14 8 ZZW 1021,7 10
16.10.2017 02:00:00 15,3 12,8 9 5 - - ZZW 1022,0 10
16.10.2017 01:00:00 15,5 12,8 9 5 14 8 ZZW 1021,7 10
16.10.2017 00:00:00 15,8 12,8 9 5 14 8 ZZW 1022,1 10
15.10.2017 23:00:00 16,2 12,7 9 5 - - ZZW 1021,8 10
15.10.2017 22:00:00 16,5 12,5 11 6 18 10 ZZW 1021,7 10
15.10.2017 21:00:00 16,2 12,7 4 2 11 6 - 1021,2 10
15.10.2017 20:00:00 17,4 12,2 5 3 - - ZZW 1021,2 10
15.10.2017 19:00:00 17,7 13,1 5 3 7 4 Z 1020,7 10
15.10.2017 18:00:00 21,0 13,7 4 2 14 8 - 1020,7 10
15.10.2017 17:00:00 23,1 12,8 5 3 - - Z 1020,8 10
15.10.2017 16:00:00 23,8 12,0 11 6 18 10 ZZW 1021,2 10
15.10.2017 15:00:00 23,6 12,5 8 4 22 12 Z 1021,6 10
15.10.2017 14:00:00 23,2 12,4 9 5 - - Z 1022,1 10
15.10.2017 13:00:00 21,3 12,4 9 5 14 8 Z 1022,7 10
15.10.2017 12:00:00 20,2 12,3 8 4 14 8 Z 1023,1 10
15.10.2017 11:00:00 17,4 13,0 8 4 - - Z 1023,6 10
15.10.2017 10:00:00 14,5 13,0 4 2 7 4 - 1024,0 10
15.10.2017 09:00:00 11,5 11,3 2 1 7 4 - 1024,0 10
15.10.2017 08:00:00 10,3 10,0 4 2 - - - 1024,2 8
15.10.2017 07:00:00 10,5 10,3 4 2 4 2 - 1024,5 7
15.10.2017 06:00:00 8,8 8,6 2 1 7 4 - 1024,7 0,4
15.10.2017 05:00:00 11,3 10,9 2 1 - - - 1024,5 10
15.10.2017 04:00:00 12,1 11,8 4 2 11 6 - 1024,7 0,2
15.10.2017 03:00:00 9,5 9,3 4 2 11 6 - 1025,2 10

tt = temperatuur
td = dauwpunt
ff = windsnelheid
fx = windstoten
dd = windrichting
ppp = luchtdruk
vv = zicht

Weerstations in de omgeving